Location: Hylvaty SDH
(49.9612°N, 16.4057°E)
Time: 03:16:14
(UTC+01:00)

Tiros 1 despin weight - Visible Passes

Search period start: 16 January 2021 00:00
Search period end: 26 January 2021 00:00
Orbit: 594 x 641 km, 48.2° (Epoch: 15 January)

Date Brightness Start Highest point End Pass type
(mag) Time Alt. Az. Time Alt. Az. Time Alt. Az.
16 Jan ? 17:30:18 10° SW 17:34:15 31° SSE 17:37:23 14° E visible
16 Jan ? 19:11:00 10° WSW 19:14:26 49° SW 19:14:26 49° SW visible
17 Jan ? 17:46:12 10° SW 17:50:27 45° SSE 17:53:08 20° E visible
17 Jan ? 19:27:20 10° W 19:30:11 39° WSW 19:30:11 39° WSW visible
18 Jan ? 18:02:20 10° WSW 18:06:44 59° SSE 18:08:53 28° E visible
18 Jan ? 19:43:42 10° W 19:45:56 29° W 19:45:56 29° W visible
19 Jan ? 18:18:37 10° WSW 18:23:04 69° S 18:24:38 38° ESE visible
19 Jan ? 20:00:05 10° W 20:01:41 21° W 20:01:41 21° W visible
20 Jan ? 18:34:58 10° W 18:39:25 71° S 18:40:23 52° ESE visible
20 Jan ? 20:16:29 10° W 20:17:26 16° W 20:17:26 16° W visible
21 Jan ? 17:09:55 10° WSW 17:14:22 64° S 17:18:46 10° E visible
21 Jan ? 18:51:20 10° W 18:55:46 65° S 18:56:09 62° SSE visible
21 Jan ? 20:33:00 10° W 20:33:12 11° W 20:33:12 11° W visible
22 Jan ? 17:26:14 10° W 17:30:42 71° S 17:34:55 11° E visible
22 Jan ? 19:07:44 10° W 19:11:58 53° SSW 19:11:58 53° SSW visible
23 Jan ? 17:42:36 10° W 17:47:04 70° S 17:50:47 14° ESE visible
23 Jan ? 19:24:10 10° W 19:27:50 37° SW 19:27:50 37° SW visible
24 Jan ? 17:58:59 10° W 18:03:25 61° SSW 18:06:42 17° ESE visible
24 Jan ? 19:40:45 10° W 19:43:47 25° SW 19:43:47 25° SW visible
25 Jan ? 18:15:23 10° W 18:19:40 47° SSW 18:22:45 17° SE visible
25 Jan ? 19:57:41 10° WSW 19:59:50 16° SW 19:59:50 16° SW visible
